| time (UTC) | temp F | wind direction | speed MPH | gust MPH | rain 1hr in | rain 24hr in | rain mn in | humidity % | barometer mb |
| 20260831091611 | 49 | 203 | 0.0 | 2.0 | 0.00 | 0.00 | 0.00 | 77 | 1017.6 |
| 20260831090035 | 49 | 233 | 0.0 | 3.0 | 0.00 | 0.00 | 0.00 | 77 | 1017.7 |
| 20260831084533 | 49 | 191 | 0.0 | 2.0 | 0.00 | 0.00 | 0.00 | 77 | 1017.9 |
| 20260831083032 | 49 | 225 | 0.0 | 3.0 | 0.00 | 0.00 | 0.00 | 75 | 1017.9 |
| 20260831080109 | 50 | 239 | 0.0 | 1.0 | 0.00 | 0.00 | 0.00 | 74 | 1017.9 |
| 20260831074534 | 50 | 210 | 1.0 | 4.0 | 0.00 | 0.00 | 0.00 | 73 | 1018.0 |
| 20260831070031 | 51 | 206 | 1.0 | 4.0 | 0.00 | 0.00 | 0.00 | 72 | 1018.1 |
| 20260831064536 | 51 | 202 | 1.0 | 4.0 | 0.00 | 0.00 | 0.00 | 73 | 1018.2 |
| 20260831063031 | 51 | 202 | 1.0 | 5.0 | 0.00 | 0.00 | 0.00 | 73 | 1018.3 |
| 20260831061534 | 52 | 213 | 0.0 | 4.0 | 0.00 | 0.00 | 0.00 | 72 | 1018.4 |
| 20260831060032 | 52 | 202 | 0.0 | 3.0 | 0.00 | 0.00 | 0.00 | 72 | 1018.3 |
| 20260831051530 | 53 | 250 | 1.0 | 4.0 | 0.00 | 0.00 | 0.00 | 73 | 1018.5 |
| 20260831050030 | 53 | 268 | 0.0 | 2.0 | 0.00 | 0.00 | 0.00 | 74 | 1018.5 |
| 20260831044530 | 53 | 292 | 0.0 | 2.0 | 0.00 | 0.00 | 0.00 | 73 | 1018.5 |
| 20260831034529 | 57 | 22 | 0.0 | 1.0 | 0.00 | 0.00 | 0.00 | 65 | 1018.3 |
| 20260831033034 | 59 | 341 | 0.0 | 0.0 | 0.00 | 0.00 | 0.00 | 60 | 1018.2 |
| 20260831031531 | 61 | 335 | 0.0 | 2.0 | 0.00 | 0.00 | 0.00 | 55 | 1018.2 |
| 20260831030034 | 64 | 337 | 3.0 | 5.0 | 0.00 | 0.00 | 0.00 | 51 | 1018.1 |
| 20260831024531 | 67 | 333 | 3.0 | 5.0 | 0.00 | 0.00 | 0.00 | 46 | 1018.0 |
| 20260831021531 | 69 | 287 | 4.0 | 8.0 | 0.00 | 0.00 | 0.00 | 42 | 1017.9 |
| 20260831020034 | 70 | 293 | 5.0 | 10.0 | 0.00 | 0.00 | 0.00 | 41 | 1018.0 |
| 20260831014534 | 71 | 293 | 5.0 | 12.0 | 0.00 | 0.00 | 0.00 | 40 | 1018.0 |
| 20260831013034 | 72 | 304 | 6.0 | 13.0 | 0.00 | 0.00 | 0.00 | 39 | 1018.0 |
| 20260831004531 | 73 | 305 | 5.0 | 10.0 | 0.00 | 0.00 | 0.00 | 37 | 1018.1 |
| 20260831003035 | 74 | 321 | 4.0 | 10.0 | 0.00 | 0.00 | 0.00 | 38 | 1018.1 |
| 20260831001529 | 75 | 315 | 4.0 | 9.0 | 0.00 | 0.00 | 0.00 | 37 | 1018.2 |
| 20260831000032 | 76 | 296 | 4.0 | 9.0 | 0.00 | 0.00 | 0.00 | 37 | 1018.3 |
| 20260830234642 | 77 | 304 | 3.0 | 9.0 | 0.00 | 0.00 | 0.00 | 36 | 1018.4 |
| 20260830231532 | 77 | 319 | 4.0 | 10.0 | 0.00 | 0.00 | 0.00 | 37 | 1018.6 |
| 20260830230110 | 78 | 314 | 5.0 | 13.0 | 0.00 | 0.00 | 0.00 | 36 | 1018.8 |
| 20260830224534 | 78 | 333 | 6.0 | 13.0 | 0.00 | 0.00 | 0.00 | 37 | 1019.0 |
| 20260830223030 | 78 | 294 | 7.0 | 20.0 | 0.00 | 0.00 | 0.00 | 36 | 1019.2 |
| 20260830220033 | 78 | 316 | 6.0 | 19.0 | 0.00 | 0.00 | 0.00 | 37 | 1019.7 |
| 20260830214534 | 78 | 333 | 5.0 | 17.0 | 0.00 | 0.00 | 0.00 | 38 | 1019.9 |
| 20260830211536 | 75 | 301 | 7.0 | 13.0 | 0.00 | 0.00 | 0.00 | 42 | 1020.0 |
| 20260830210035 | 73 | 319 | 6.0 | 18.0 | 0.00 | 0.00 | 0.00 | 44 | 1020.2 |
| 20260830204537 | 72 | 331 | 6.0 | 14.0 | 0.00 | 0.00 | 0.00 | 44 | 1020.2 |
| 20260830203030 | 72 | 311 | 7.0 | 17.0 | 0.00 | 0.00 | 0.00 | 45 | 1020.4 |
| 20260830201642 | 72 | 322 | 6.0 | 15.0 | 0.00 | 0.00 | 0.00 | 47 | 1020.5 |
| 20260830194535 | 70 | 329 | 6.0 | 13.0 | 0.00 | 0.00 | 0.00 | 48 | 1020.8 |
| 20260830191609 | 69 | 334 | 2.0 | 9.0 | 0.00 | 0.00 | 0.00 | 50 | 1021.2 |
| 20260830190109 | 68 | 330 | 3.0 | 9.0 | 0.00 | 0.00 | 0.00 | 52 | 1021.4 |
| 20260830184534 | 67 | 329 | 4.0 | 11.0 | 0.00 | 0.00 | 0.00 | 54 | 1021.5 |
| 20260830183036 | 65 | 23 | 2.0 | 6.0 | 0.00 | 0.00 | 0.00 | 56 | 1021.7 |
| 20260830180030 | 63 | 332 | 3.0 | 10.0 | 0.00 | 0.00 | 0.00 | 59 | 1021.9 |
| 20260830174529 | 62 | 34 | 2.0 | 6.0 | 0.00 | 0.00 | 0.00 | 61 | 1021.9 |
| 20260830173035 | 61 | 40 | 2.0 | 8.0 | 0.00 | 0.00 | 0.00 | 64 | 1022.0 |
| 20260830170151 | 59 | 35 | 2.0 | 9.0 | 0.00 | 0.00 | 0.00 | 68 | 1022.3 |
| 20260830164535 | 57 | 68 | 1.0 | 5.0 | 0.00 | 0.00 | 0.00 | 71 | 1022.5 |
| 20260830161535 | 54 | 61 | 1.0 | 5.0 | 0.00 | 0.00 | 0.00 | 78 | 1022.9 |
| 20260830160036 | 52 | 67 | 1.0 | 4.0 | 0.00 | 0.00 | 0.00 | 81 | 1022.9 |
| 20260830154535 | 50 | 67 | 0.0 | 3.0 | 0.00 | 0.00 | 0.00 | 84 | 1023.0 |
| 20260830151532 | 47 | 78 | 2.0 | 4.0 | 0.00 | 0.00 | 0.00 | 89 | 1023.0 |
| 20260830144534 | 43 | 292 | 2.0 | 4.0 | 0.00 | 0.00 | 0.00 | 89 | 1022.8 |
| 20260830143030 | 42 | 277 | 1.0 | 4.0 | 0.00 | 0.00 | 0.00 | 89 | 1022.7 |
| 20260830141535 | 41 | 177 | 0.0 | 3.0 | 0.00 | 0.00 | 0.00 | 88 | 1022.5 |
| 20260830140032 | 40 | 154 | 1.0 | 3.0 | 0.00 | 0.00 | 0.00 | 87 | 1022.3 |
| 20260830134534 | 41 | 171 | 0.0 | 4.0 | 0.00 | 0.00 | 0.00 | 86 | 1022.1 |
| 20260830133036 | 41 | 215 | 0.0 | 2.0 | 0.00 | 0.00 | 0.00 | 86 | 1022.0 |
| 20260830131643 | 41 | 200 | 1.0 | 5.0 | 0.00 | 0.00 | 0.00 | 86 | 1022.0 |
| 20260830124536 | 41 | 173 | 0.0 | 3.0 | 0.00 | 0.00 | 0.00 | 85 | 1021.8 |
| 20260830123031 | 41 | 177 | 1.0 | 5.0 | 0.00 | 0.00 | 0.00 | 84 | 1021.9 |
| 20260830121532 | 41 | 157 | 0.0 | 3.0 | 0.00 | 0.00 | 0.00 | 83 | 1021.8 |
| 20260830120031 | 42 | 174 | 0.0 | 3.0 | 0.00 | 0.00 | 0.00 | 83 | 1021.9 |
| 20260830114535 | 41 | 170 | 3.0 | 6.0 | 0.00 | 0.00 | 0.00 | 82 | 1021.9 |
| 20260830113147 | 41 | 175 | 3.0 | 5.0 | 0.00 | 0.00 | 0.00 | 81 | 1021.8 |
| 20260830111529 | 42 | 233 | 1.0 | 4.0 | 0.00 | 0.00 | 0.00 | 80 | 1021.7 |
| 20260830104530 | 44 | 201 | 3.0 | 6.0 | 0.00 | 0.00 | 0.00 | 78 | 1021.9 |
| 20260830103032 | 45 | 190 | 2.0 | 5.0 | 0.00 | 0.00 | 0.00 | 78 | 1021.9 |
| 20260830101536 | 45 | 202 | 4.0 | 6.0 | 0.00 | 0.00 | 0.00 | 77 | 1022.0 |
| 20260830100032 | 46 | 207 | 2.0 | 5.0 | 0.00 | 0.00 | 0.00 | 77 | 1021.9 |
| 20260830094529 | 46 | 184 | 5.0 | 8.0 | 0.00 | 0.00 | 0.00 | 76 | 1021.9 |
| 20260830093142 | 46 | 157 | 4.0 | 7.0 | 0.00 | 0.00 | 0.00 | 76 | 1021.7 |